This is the latest recevied weather packets stored in our database for station/object NN3A-3. If no packets are shown the sender has not sent any weather packets the latest 10 day(s).
| Time | Temp. | Humidity | Pressure | Rain* | Wind** | Luminosity | Snow |
|---|---|---|---|---|---|---|---|
| 1777426071 | 14.44° C | 96% | 1015 hPa | 0 mm | - | - | - |
| 1777425770 | 13.89° C | 96% | 1015 hPa | 0 mm | - | - | - |
| 1777425470 | 14.44° C | 96% | 1015 hPa | 0 mm | - | - | - |
| 1777424271 | 14.44° C | 95% | 1014.7 hPa | 0 mm | - | - | - |
| 1777423972 | 15° C | 95% | 1014.4 hPa | 0 mm | - | - | - |
| 1777423671 | 14.44° C | 95% | 1014.4 hPa | 0 mm | - | - | - |
| 1777422472 | 16.11° C | 94% | 1014 hPa | 0 mm | - | - | - |
| 1777421873 | 16.11° C | 94% | 1014.4 hPa | 0 mm | - | - | - |
| 1777420074 | 16.67° C | 93% | 1014 hPa | 0 mm | - | - | - |
| 1777414076 | 17.78° C | 93% | 1014.7 hPa | 0 mm | - | - | - |
| 1777413776 | 16.11° C | 93% | 1014.7 hPa | 0 mm | - | - | - |
| 1777411977 | 16.67° C | 94% | 1014.7 hPa | 0 mm | - | - | - |
| 1777410178 | 16.67° C | 96% | 1014.7 hPa | 0 mm | - | - | - |
| 1777409878 | 16.67° C | 97% | 1014.7 hPa | 0 mm | - | - | - |
| 1777408079 | 15° C | 97% | 1015.4 hPa | 0 mm | - | - | - |
| 1777407779 | 15° C | 96% | 1015.4 hPa | 0 mm | - | - | - |
| 1777405980 | 15° C | 96% | 1015.4 hPa | 0 mm | - | - | - |
| 1777405681 | 15° C | 96% | 1015.4 hPa | 0 mm | - | - | - |
| 1777405080 | 15° C | 96% | 1015.4 hPa | 0 mm | - | - | - |
| 1777404780 | 15° C | 97% | 1015.4 hPa | 0 mm | - | - | - |
| 1777403881 | 14.44° C | 96% | 1015.7 hPa | 0 mm | - | - | - |
| 1777399684 | 13.33° C | 96% | 1015.4 hPa | 0 mm | - | - | - |
| 1777399084 | 13.33° C | 96% | 1015.4 hPa | 0 mm | - | - | - |
| 1777397585 | 13.33° C | 95% | 1015.4 hPa | 0 mm | - | - | - |
| 1777396086 | 12.78° C | 96% | 1015.4 hPa | 0 mm | - | - | - |
* Rain latest hour (hover to see other rain measurements)
** Current wind speed in m/s (hover to see current wind gust speed)